Location: Fontevrault
(47.1823°N, 0.0493°E)
Time: 08:27:34
(UTC+00:00)

Meteor 2-20 - Visible Passes

Search period start: 25 October 2021 00:00
Search period end: 04 November 2021 00:00
Orbit: 938 x 959 km, 82.5° (Epoch: 24 October)

Date Brightness Start Highest point End Pass type
(mag) Time Alt. Az. Time Alt. Az. Time Alt. Az.
25 Oct 6.2 04:29:41 10° SSE 04:35:03 34° E 04:40:25 10° NNE visible
26 Oct 5.3 04:46:22 10° SSE 04:52:14 51° E 04:58:05 10° NNE visible
26 Oct 6.7 17:20:26 10° NNW 17:25:32 29° W 17:30:37 10° SW visible
27 Oct 7.4 03:23:18 10° E 03:25:43 13° ENE 03:28:08 10° NE visible
27 Oct 4.6 05:03:26 10° S 05:09:31 78° E 05:15:36 10° NNE visible
27 Oct 7.2 17:38:31 10° NW 17:42:35 19° W 17:46:39 10° WSW visible
28 Oct 6.9 03:38:29 10° SE 03:42:41 20° E 03:46:53 10° NE visible
28 Oct 4.4 05:20:49 10° SSW 05:26:53 71° W 05:32:59 10° N visible
28 Oct 7.6 17:57:25 10° NW 17:59:33 12° WNW 18:01:40 10° W visible
29 Oct 6.2 03:54:35 10° SE 03:59:45 30° E 04:04:55 10° NNE visible
29 Oct 4.6 05:38:31 10° SSW 05:44:22 47° WNW 05:50:14 10° N visible
30 Oct 5.5 04:11:10 10° SSE 04:16:55 45° E 04:22:39 10° NNE visible
30 Oct 5.1 05:56:35 10° SW 06:01:57 32° WNW 06:07:20 10° N visible
31 Oct 7.4 02:49:08 10° E 02:50:30 11° ENE 02:51:51 10° ENE visible
31 Oct 4.7 04:28:09 10° S 04:34:10 69° E 04:40:12 10° NNE visible
01 Nov 6.9 03:03:37 10° ESE 03:07:26 17° E 03:11:14 10° NE visible
01 Nov 4.3 04:45:26 10° SSW 04:51:31 80° W 04:57:37 10° N visible
01 Nov 7.3 17:21:25 10° NW 17:24:18 14° WNW 17:27:11 10° WSW visible
02 Nov 6.3 03:19:32 10° SE 03:24:28 27° E 03:29:24 10° NNE visible
02 Nov 4.5 05:03:02 10° SSW 05:08:57 53° WNW 05:14:55 10° N visible
03 Nov 5.6 03:36:01 10° SSE 03:41:35 40° E 03:47:12 10° NNE visible
03 Nov 4.9 05:20:59 10° SW 05:26:30 35° WNW 05:32:03 10° N visible
